Location: Dilsberg
(49.3983°N, 8.8354°E)
Time: 19:29:52
(UTC+00:00)

Cosmos 2221 - Pass Details

Date: 19 May 2025
Orbit: 572 x 593 km, 82.5° (Epoch: 20 June)

Event Time Altitude Azimuth Distance (km) Brightness Sun altitude
Exits shadow 21:37:42 23° 202° (SSW) 1,257 3.8 -16.9°
Maximum altitude 21:40:14 69° 281° (W) 622 2.6 -17.1°
Drops below altitude 10° 21:44:25 10° 6° (N) 1,897 6.0 -17.4°
Sets 21:46:37 0° 8° (N) 2,798 6.9 -17.5°
